Location: A�t �Alizem
(31.2076°N, 8.7872°W)
Time: 12:41:09
(UTC+00:00)

Envisat - Pass Details

Date: 07 October 2021
Orbit: 764 x 766 km, 98.2° (Epoch: 20 October)

Event Time Altitude Azimuth Distance (km) Brightness Sun altitude
Rises 04:54:42 0° 25° (NNE) 3,231 6.7 -21.7°
Reaches altitude 10° 04:57:16 10° 36° (NE) 2,302 6.0 -21.2°
Maximum altitude 05:01:43 30° 97° (E) 1,331 4.9 -20.2°
Drops below altitude 10° 05:06:08 10° 159° (SSE) 2,290 5.6 -19.3°
Sets 05:08:40 0° 169° (S) 3,213 6.3 -18.8°
